Zurück zum Katalog

COSMOS 2129

AktivNavigationLEO
NORAD 21104·PAYLOAD·🇷🇺 Russia

Gestartet Feb 12, 1991 von Plesetsk Cosmodrome

Loading…

Nächste Überflüge (nächste 24 Stunden)

TLE

AktuellSource: Space-Track

Epoche: Sep 14, 2026, 00:48 UTC

1 21104U 91009E   26257.03351705 -.00000020  00000-0 -26130-4 0  9993
2 21104  74.0270  80.4279 0025283 236.3237 288.6021 12.53745287628654

Verfolge COSMOS 2129 in Echtzeit mit AllMySat

Download on the App Store